Startpagina
METAR-TAF:

METAR-TAF

Vliegvelden :

Productieplatform

K14-fa-1c, Nederland

breedte: 53-16-10N, lengte: 3-37-40E, hoogte: 28 m

Actueel weer

Dit bericht is 24 minuten geleden gemaakt, om 11:25 UTC
Wind 37 kt uit het zuiden
Temperatuur 19°C
Vochtigheid 83%
Druk 1011 hPa
Zicht 10 km of meer
Weinig wolken op 1100 ft

METAR: EHKV 191125Z AUTO 19037KT 9999 FEW011 19/16 Q1011 W///H///

Tijdstip: 13:49 (11:49 UTC)


TAF: ontbreekt

Waarnemingen en weersverwachtingen van meer dan 4000 vliegvelden (METAR en TAF).

De beschikbare stations zijn de gele en rode punten op de kaart.

Ga met uw muis naar het station om de naam te zien.

Klik dan om waarnemingen en weersverwachtingen te zien.

kaart wijzigen: klik op de groene knoppen met een zwart kruis om in te zoomen, op de groene knop met een streepje om uit te zoomen of op de groene pijlen voor aangrenzende kaarten.


METAR-TAF: